User: anonymous   Login
Location: Montr�al
(45.5000°N, 73.5830°W)
Time: 10:07:53
(UTC-05:00)
Language:

Cosmos 1151 Rocket - Orbit

View from above orbital plane
View from above orbital plane
View from above satellite
View from above satellite

Ground track
Ground track

The orbit data is extracted from the following two-line orbital elements,

1 11672U 80005B   15059.33396316  .00000611  00000-0  64638-4 0  9993
2 11672 082.5181 151.9068 0015957 220.7190 139.2836 14.87487835898521
Epoch (UTC): 28 February 2015 08:00:54
Eccentricity: 0.0015957
inclination: 82.5181°
perigee height: 594 km
apogee height: 617 km
right ascension of ascending node: 151.9068°
argument of perigee: 220.7190°
revolutions per day: 14.87487835
mean anomaly at epoch: 139.2836°
orbit number at epoch: 89852

The dashed part of the orbit path shows where the satellite is in the earth's shadow,  

DLR